Temp
20 21 23 24 22 23 24 28 30 29 29 28 28 28 24 24 24 22 22 22 22 23 22 22 21 21 20 20 20 20 20 20 20 20 19 19 19 19 19 19 19 19 19 19 18 18 19 19 19
20 21 23 22 22 23 25 28 29 28 27 27 27 28 26 23 23 22 23 23 22 23 22 22 21 21 20 20 20 20 20 20 19 19 19 19 19 19 19 19 19 19 19 19 19 19 19 19 19
21 23 21 22 23 24 26 27 27 26 27 28 26 25 25 23 23 23 23 23 23 23 21 21 21 20 20 20 20 20 19 19 19 19 19 19 19 19 19 19 19 19 19 19 19 19 19 19 18
22 23 22 22 24 26 28 27 26 26 27 28 26 22 22 23 23 22 22 23 22 21 21 21 20 20 20 20 19 19 19 19 19 19 19 19 19 19 19 19 19 19 19 19 19 19 19 19 18
23 22 22 23 24 26 28 27 26 25 26 27 27 23 21 21 21 22 22 22 21 20 20 20 20 20 20 20 20 20 20 19 19 19 19 19 19 19 19 19 19 19 18 18 18 19 19 19 18
21 22 22 22 25 26 26 27 27 27 26 26 25 23 21 22 20 21 22 21 21 20 20 20 20 20 20 20 20 20 20 19 19 19 19 19 19 19 19 19 19 19 19 19 18 19 19 19 19
22 22 22 24 23 24 25 26 27 26 25 24 26 23 21 21 20 21 21 21 20 20 20 20 20 21 20 20 19 19 20 20 19 20 19 19 19 19 19 19 19 19 19 19 19 19 19 18 19
20 22 24 25 23 24 24 25 25 25 22 25 24 23 20 20 20 21 21 21 20 20 19 19 20 20 20 21 21 20 20 19 19 20 20 20 20 19 19 20 19 19 19 19 19 18 18 18 18
23 21 22 26 24 23 24 23 24 24 23 24 23 22 21 21 20 21 21 21 21 20 20 19 20 20 20 20 21 20 20 20 20 19 19 19 20 20 20 20 20 19 19 19 19 19 18 18 18
21 21 22 22 22 23 24 23 23 24 23 22 21 22 21 21 21 21 21 21 21 20 19 18 18 19 19 19 19 20 20 20 20 20 20 20 20 20 20 19 20 19 19 19 19 19 19 18 18
22 21 22 20 20 24 24 22 25 24 23 23 21 20 21 22 21 21 21 20 19 18 18 17 17 17 17 18 18 19 20 19 19 20 20 20 20 20 20 20 20 20 19 19 19 19 19 19 19
19 20 21 20 19 22 23 23 23 23 21 22 22 21 21 21 20 21 21 20 19 18 17 16 16 16 16 17 17 18 18 19 19 18 19 19 19 19 20 20 20 20 20 19 19 19 19 19 19
19 19 19 19 20 20 21 22 20 23 21 22 21 21 21 20 22 21 21 20 18 17 17 16 16 16 15 16 16 16 17 17 18 18 17 17 17 18 18 18 19 19 19 19 20 19 19 19 20
20 19 19 20 19 19 21 22 21 22 21 21 21 19 19 20 21 21 20 19 19 18 17 16 15 15 15 15 15 15 15 16 16 16 16 16 17 17 17 17 17 18 18 19 19 19 19 19 19
19 18 19 19 20 18 19 21 20 22 21 21 21 20 20 19 21 21 20 19 19 18 17 16 15 15 14 14 14 14 14 14 15 15 15 15 16 16 16 16 16 16 17 17 18 19 18 18 18
21 21 19 20 20 18 20 20 21 21 20 20 21 20 20 19 20 20 20 19 18 17 16 16 15 14 14 14 13 13 13 13 13 14 14 14 14 14 14 14 14 15 16 17 17 18 18 18 18
21 18 20 19 20 19 20 20 21 21 21 20 20 20 19 19 20 21 20 19 18 17 17 15 15 14 14 14 13 13 13 13 13 13 13 13 14 13 13 13 13 13 14 15 16 16 17 17 18
20 20 21 20 18 19 19 18 20 20 20 18 19 19 19 18 18 21 20 18 18 17 16 15 15 14 13 13 13 13 12 12 12 12 11 12 12 13 13 12 13 13 13 14 15 15 16 16 17
21 22 21 19 18 18 18 18 20 21 19 17 18 18 19 20 20 21 20 18 17 16 15 15 14 13 12 12 12 11 10 9 10 10 10 11 11 12 12 12 13 13 13 14 14 15 15 15 16
22 22 19 18 18 18 18 17 18 20 20 20 19 19 19 20 19 18 18 17 16 15 15 14 13 12 12 12 11 10 9 9 9 10 10 9 9 12 12 12 12 13 13 14 14 14 15 15 16
16 17 17 18 18 19 16 17 21 22 20 20 21 20 20 20 20 15 16 16 15 15 14 14 13 12 12 11 10 10 9 9 9 10 9 9 9 10 11 11 12 12 13 14 14 14 14 15 15
18 16 18 18 16 14 18 12 18 22 21 20 20 18 18 19 19 15 15 15 15 15 14 13 13 12 12 11 11 10 9 9 9 9 9 9 9 9 10 10 11 12 12 13 14 14 14 14 14
15 16 17 17 17 13 17 11 14 20 21 21 20 19 17 15 17 15 15 16 16 15 14 13 12 12 12 11 11 10 10 9 9 8 8 8 8 8 9 9 9 10 11 12 13 13 14 14 14
15 16 16 17 16 11 17 13 13 16 20 21 20 19 17 16 15 15 16 16 16 15 14 13 12 12 12 12 11 11 10 10 9 8 8 8 8 8 8 8 9 9 9 11 11 12 12 12 12
16 16 13 13 11 12 15 12 13 17 20 20 19 18 18 16 15 15 14 15 15 14 14 13 13 12 12 12 11 11 10 10 9 8 8 8 8 7 8 8 8 9 9 10 11 11 11 11 11
16 15 11 15 13 12 15 11 13 19 19 18 17 19 17 18 16 15 15 16 16 15 15 14 13 13 13 12 12 11 10 10 9 9 8 8 8 8 7 8 7 9 9 9 10 11 11 11 11
15 13 15 10 14 10 12 15 16 16 18 18 16 17 16 16 15 15 16 17 16 16 15 15 14 14 13 13 12 11 11 10 10 9 9 9 9 8 7 7 8 8 9 9 9 10 10 11 11
14 15 13 11 12 13 14 15 13 11 15 17 18 17 17 18 17 15 16 17 17 16 16 15 15 14 13 13 12 12 11 11 10 9 9 9 9 8 7 7 7 7 8 9 9 9 9 9 10
13 13 14 14 13 11 12 12 12 11 16 17 17 18 17 17 16 15 16 17 17 17 16 16 15 15 14 13 12 12 11 11 10 10 9 9 9 8 8 8 8 8 9 9 8 8 9 9 9
14 16 15 11 14 13 13 11 19 18 17 17 17 18 19 19 17 16 16 17 17 17 17 16 15 15 14 13 12 12 11 11 10 10 9 9 9 8 8 8 9 8 8 8 8 8 8 8 7
Height
783 785 787 789 810 804 808 784 760 773 771 768 766 771 788 792 800 820 808 808 808 809 809 810 813 814 816 817 818 819 819 820 820 820 821 821 821 821 822 822 823 823 824 824 824 825 825 825 824
783 786 788 790 812 818 802 771 773 772 772 769 773 773 783 806 797 803 806 808 808 809 809 811 813 815 816 817 818 819 820 821 821 821 822 822 822 822 822 822 822 823 824 824 824 825 825 825 825
782 785 791 798 803 806 792 773 775 774 773 775 783 781 787 804 800 805 807 808 809 810 810 812 814 816 817 818 819 820 820 821 822 822 822 822 822 822 822 822 822 823 823 824 824 824 824 825 825
781 786 787 803 800 783 774 770 772 779 777 776 781 800 800 803 803 807 809 808 809 809 811 813 815 816 817 818 819 820 821 821 821 822 822 822 822 822 822 822 822 823 824 824 824 824 824 824 824
780 780 798 800 792 780 766 767 772 784 783 782 778 800 807 807 808 809 809 810 811 812 812 814 815 816 817 818 818 819 819 820 820 820 821 821 821 821 821 821 821 821 823 823 823 823 823 823 823
783 779 798 804 790 778 775 769 773 778 781 783 789 797 808 809 809 809 811 812 813 814 815 815 816 817 817 817 818 818 818 818 819 819 819 820 820 820 820 820 820 820 821 821 821 822 821 821 821
781 785 793 784 791 787 784 773 775 780 785 790 782 799 807 808 810 810 812 813 814 815 816 816 817 817 817 817 817 817 817 817 818 818 818 818 818 818 818 818 818 818 818 819 819 819 820 819 820
780 779 781 774 790 790 782 779 777 782 796 786 787 799 810 806 810 810 812 813 814 815 815 816 817 817 817 818 817 817 817 816 816 816 816 816 816 816 816 816 816 815 815 816 816 817 817 817 817
774 788 787 772 781 786 781 787 783 785 789 790 793 795 798 804 809 810 812 813 814 815 815 815 816 816 816 817 817 816 816 816 816 815 815 815 815 814 814 813 813 813 813 813 813 813 813 814 813
779 783 784 779 778 781 782 787 788 790 795 798 801 801 803 805 808 810 811 812 814 815 815 815 815 816 816 816 816 815 816 815 815 815 815 814 813 813 812 812 811 811 810 810 810 809 809 809 809
777 787 782 787 783 776 782 790 783 789 799 794 800 804 804 806 808 810 811 812 813 815 815 815 815 815 815 815 815 815 815 814 814 813 812 812 811 810 810 809 809 808 807 807 806 806 805 804 804
790 786 786 790 790 785 788 788 790 790 798 791 793 798 803 805 807 809 810 811 813 814 814 815 814 814 814 814 814 814 813 812 812 812 811 810 809 808 807 806 806 806 805 804 803 802 801 800 800
789 793 793 794 794 794 792 792 798 793 794 795 797 800 803 804 806 808 810 810 812 813 814 814 814 814 813 813 813 812 812 811 811 810 809 808 807 806 805 803 802 802 801 801 800 799 798 797 797
787 793 796 797 799 798 797 796 796 792 793 798 800 803 803 803 804 806 808 810 811 812 813 813 813 813 812 812 812 811 810 809 808 807 806 806 805 803 802 801 800 799 798 797 797 796 794 793 792
789 800 798 800 799 803 801 801 801 790 793 798 799 800 800 801 802 803 805 808 809 811 811 812 813 812 812 811 810 809 808 807 806 805 804 803 802 800 799 797 796 796 795 794 793 791 791 789 789
789 791 806 803 799 804 802 810 791 790 795 799 797 797 798 799 800 801 804 806 808 809 810 811 811 811 810 809 807 806 805 804 803 803 802 800 799 798 796 794 793 792 792 791 790 789 788 786 785
794 811 802 810 801 802 804 805 793 790 794 797 796 794 795 796 796 798 801 804 806 808 809 810 809 809 809 807 806 804 804 803 802 800 799 798 797 795 794 792 790 789 787 787 786 785 785 784 782
802 800 797 805 810 804 806 808 796 793 794 796 795 791 790 791 792 794 797 801 804 806 807 808 808 807 806 805 804 803 802 801 799 799 798 796 794 793 792 790 788 786 785 784 783 783 782 781 779
787 789 800 808 810 811 807 804 795 787 791 794 792 790 787 785 783 787 793 797 800 803 806 806 806 805 804 803 802 800 800 799 798 797 796 795 793 791 790 788 786 784 783 782 781 780 779 778 777
788 792 808 810 810 811 807 807 793 785 781 781 784 784 783 781 782 786 789 794 798 802 804 805 804 803 803 803 802 801 799 797 796 796 795 793 790 789 788 786 784 782 781 780 779 778 777 775 775
814 815 817 817 809 806 813 807 783 769 772 773 771 774 777 779 782 786 789 793 798 800 802 802 802 802 802 801 800 799 798 796 795 794 793 791 789 787 785 784 782 780 779 777 777 776 775 773 772
815 818 814 815 823 838 810 847 796 774 774 773 773 775 777 780 782 785 789 793 796 798 799 800 801 801 801 800 799 797 795 794 793 792 790 789 788 785 783 781 779 777 776 775 774 773 772 772 769
825 818 819 818 821 836 819 851 810 781 778 775 774 773 777 781 784 787 789 792 794 796 797 798 799 799 798 797 796 795 794 793 791 790 789 787 786 784 782 780 778 775 774 773 772 772 771 770 768
822 822 820 818 824 856 818 837 825 799 783 775 776 777 779 782 784 786 788 791 792 794 795 795 796 796 795 794 793 793 792 791 790 789 787 785 784 782 781 779 777 775 773 771 770 770 768 766 766
821 822 845 850 856 850 828 843 819 789 778 780 780 781 781 783 784 786 787 789 791 791 792 793 793 792 792 791 791 790 790 789 788 786 785 783 781 779 778 777 775 773 771 771 770 768 766 765 764
825 828 852 842 850 850 827 842 815 780 778 779 781 779 782 783 784 784 785 787 788 788 789 789 788 787 788 787 787 787 787 787 786 783 782 780 778 777 775 774 773 771 770 769 767 766 764 763 762
827 839 831 857 839 861 839 809 790 784 780 779 782 781 784 783 783 784 784 784 785 785 785 785 785 784 784 783 783 783 783 783 782 781 779 778 777 774 773 772 771 769 768 767 765 763 762 760 759
829 829 842 851 856 849 827 813 815 810 792 784 781 783 782 779 780 781 780 781 781 781 781 781 780 779 779 779 779 778 778 777 777 777 776 776 775 772 771 769 768 767 765 764 763 762 762 760 758
836 835 831 833 839 854 846 830 800 804 787 786 785 782 781 780 780 779 778 778 777 777 777 776 775 774 774 774 774 774 774 773 773 773 773 773 772 770 769 767 766 765 763 762 761 760 760 758 757
826 820 824 850 836 834 834 831 776 780 783 784 784 779 778 777 778 777 776 775 774 772 771 770 770 769 769 770 770 769 769 770 770 769 769 769 768 767 766 765 764 763 762 760 760 759 758 756 754
Wind_Speed
8 9 1 3 1 3 7 5 4 7 4 4 10 11 14 12 7 7 7 6 6 6 7 8 7 5 4 3 1 1 2 3 3 4 3 2 3 3 1 1 2 2 3 2 2 3 2 2 3
10 6 6 2 2 4 6 4 3 7 8 9 7 4 10 7 11 10 8 6 6 7 5 8 6 5 4 3 2 1 1 1 1 2 2 1 0 2 2 3 5 5 6 3 1 1 1 2 2
12 13 3 3 4 6 2 8 7 11 7 5 4 8 6 4 10 5 8 7 8 8 13 10 6 4 3 2 2 2 3 3 3 2 2 2 2 3 4 4 4 1 6 5 3 3 4 4 4
12 3 3 1 9 3 2 6 15 9 6 2 10 7 5 11 7 8 7 9 11 14 12 10 7 5 3 2 1 2 3 4 5 6 5 5 5 4 5 5 4 3 7 7 6 6 6 6 8
14 3 3 4 7 1 2 10 11 9 8 4 4 6 5 10 13 10 10 13 15 16 9 9 7 5 3 2 2 2 3 4 5 5 7 7 7 7 6 6 6 6 8 9 9 9 8 7 9
3 3 4 6 6 4 5 4 9 7 9 3 9 8 5 13 11 11 11 13 13 13 11 8 6 3 2 0 2 2 3 4 5 6 7 8 9 9 9 9 9 8 10 11 12 11 9 9 10
2 3 7 9 7 4 4 4 3 8 8 5 3 5 6 8 9 10 11 11 10 11 10 9 6 7 7 5 3 4 5 6 7 8 9 10 11 12 12 12 12 12 12 13 13 13 12 11 11
0 2 6 6 11 5 6 2 8 6 5 2 5 4 6 13 10 10 10 10 8 7 5 4 4 2 3 5 7 7 7 8 9 10 10 12 13 15 15 14 16 16 15 15 15 15 16 15 14
2 1 4 4 12 7 7 4 4 3 7 4 5 7 14 19 12 10 8 7 6 5 4 4 3 3 3 3 6 8 9 10 9 10 11 11 13 12 13 16 17 16 17 17 17 18 19 19 19
2 2 7 6 8 8 9 9 7 4 8 5 7 7 15 14 12 9 7 8 4 3 3 4 5 5 5 4 6 7 6 8 8 10 12 12 14 14 13 14 16 17 19 21 21 22 21 21 22
3 4 4 9 9 8 5 7 3 5 5 8 9 9 10 11 10 8 5 2 3 1 1 3 3 5 6 7 6 8 8 10 9 11 10 13 13 13 16 16 16 18 20 21 21 22 23 26 27
5 7 7 4 7 5 4 7 3 4 4 8 8 11 8 7 10 9 7 7 5 2 2 2 4 4 4 8 6 7 9 10 14 11 13 15 15 17 16 15 15 17 19 18 20 20 21 20 22
9 5 7 5 6 7 3 2 4 0 8 5 8 5 6 7 6 7 5 5 5 4 3 3 4 6 7 9 8 9 10 12 14 15 16 15 17 17 18 20 20 20 17 17 21 22 19 22 24
7 9 7 6 6 4 3 3 4 6 9 4 7 7 7 7 10 9 10 7 6 5 3 5 5 7 8 10 12 12 13 14 15 17 18 18 19 20 21 20 21 22 23 25 22 22 24 24 22
12 9 7 5 3 4 4 1 5 3 7 6 7 7 8 9 10 9 9 9 6 3 3 4 5 8 10 11 12 14 13 14 15 15 15 16 17 19 19 20 21 22 24 25 26 26 22 20 24
5 5 4 2 1 2 2 5 8 9 7 7 8 7 7 7 10 11 10 8 6 5 4 4 6 9 10 11 13 14 14 14 15 14 15 16 16 16 17 19 21 21 21 22 22 22 23 23 23
2 3 5 4 2 1 2 4 4 5 5 8 8 9 8 8 11 13 13 9 8 6 4 3 5 7 9 10 12 11 12 13 13 11 12 15 14 16 17 19 20 20 21 21 20 19 20 22 22
4 6 5 4 2 2 3 10 6 8 8 10 9 9 9 9 10 17 16 12 9 5 4 4 4 6 9 9 8 8 10 8 12 13 13 13 14 14 15 17 17 17 18 18 18 19 20 22 23
6 6 7 4 3 2 6 10 9 7 8 10 10 9 9 8 14 19 15 12 9 5 5 4 3 6 7 8 9 11 11 13 11 13 14 13 13 13 14 14 16 15 15 16 17 19 20 21 20
6 4 5 3 0 1 6 12 12 11 11 10 10 10 10 8 7 13 12 10 8 7 5 4 3 4 5 5 8 8 10 9 14 12 11 14 13 10 15 15 15 14 15 15 16 17 18 18 17
8 6 6 4 4 3 6 7 4 6 12 10 5 1 3 3 3 7 9 10 10 10 8 5 4 3 4 6 4 7 8 10 10 11 13 12 13 12 11 12 13 13 13 15 15 15 16 17 18
4 5 3 4 4 1 2 5 6 5 6 4 5 6 5 2 1 6 9 12 15 12 10 7 6 6 4 5 5 7 8 10 11 13 13 14 12 11 10 11 10 9 11 13 14 14 15 15 17
3 3 3 2 3 4 2 3 8 5 3 4 1 6 8 8 6 8 11 14 14 13 12 10 10 8 6 5 6 8 9 10 11 11 12 12 11 12 11 11 13 13 10 11 14 15 15 15 16
2 4 5 2 1 2 1 4 6 1 3 3 4 6 7 7 8 8 13 12 12 12 13 13 11 11 9 8 7 8 9 10 10 9 11 10 12 12 11 12 13 12 13 13 13 12 11 12 13
3 3 2 3 3 4 3 1 10 8 2 4 4 5 4 6 6 6 7 11 13 15 16 15 14 14 12 11 10 10 10 10 10 9 9 12 12 12 12 12 12 12 12 14 14 14 14 14 16
4 3 3 2 1 3 3 5 6 1 2 2 5 2 5 2 4 6 9 13 16 17 17 18 17 17 15 16 14 12 11 11 10 11 10 11 11 12 13 12 12 11 12 13 12 11 12 14 16
1 1 1 4 1 3 4 6 8 6 5 4 7 4 6 6 5 7 8 10 12 14 17 19 20 21 20 19 17 16 13 13 12 11 11 12 12 12 13 13 13 11 11 11 10 10 13 12 12
2 2 2 2 2 4 5 4 5 4 5 7 3 5 6 4 4 5 6 9 12 16 18 19 21 23 22 21 21 20 16 15 14 13 14 12 13 14 10 12 10 11 9 8 9 10 11 11 9
2 2 3 1 2 3 3 6 6 6 4 3 5 4 4 4 4 4 6 10 14 16 17 20 21 22 23 22 22 21 20 18 16 16 15 14 13 12 12 9 8 11 8 7 9 8 8 9 8
4 3 6 3 3 4 1 6 3 3 3 1 5 4 2 3 5 6 9 13 17 20 22 25 24 23 23 23 23 25 23 20 20 19 17 15 15 13 12 9 9 10 9 8 8 7 7 7 7
Wind_Direction
178 163 180 268 128 225 241 264 96 104 76 39 26 54 92 45 30 111 107 93 93 112 154 144 146 154 161 160 142 102 82 70 64 66 67 79 89 81 58 357 311 245 195 115 96 98 112 93 94
156 183 213 270 210 196 249 144 89 93 87 77 39 13 43 66 73 114 112 99 111 115 126 162 131 148 165 177 209 246 283 307 25 42 35 30 287 188 265 296 308 309 185 211 166 206 302 160 182
170 189 147 182 211 214 236 132 119 93 114 112 83 24 52 90 71 80 84 95 91 111 123 133 116 132 153 172 220 267 278 281 285 298 331 336 309 293 289 294 320 253 196 231 273 289 263 227 223
175 181 290 229 237 335 49 140 107 109 67 54 112 78 72 14 80 96 102 104 79 101 112 124 122 123 130 144 203 269 288 280 281 282 287 291 298 304 294 291 286 255 229 245 270 289 277 248 228
193 202 191 212 238 229 46 106 119 141 153 143 104 88 83 79 102 101 88 94 90 83 82 118 120 121 127 145 199 226 254 269 277 273 276 276 280 284 290 286 276 258 242 248 264 279 276 263 237
154 213 213 203 147 88 33 50 165 124 105 119 98 102 91 134 117 107 103 94 94 98 94 86 92 90 102 186 248 236 250 261 266 270 274 279 280 275 278 280 281 271 258 251 259 268 270 268 248
302 192 242 202 125 129 135 297 223 121 134 40 61 93 123 131 119 113 106 101 100 100 100 98 64 46 29 7 309 291 284 279 271 275 275 275 274 273 271 272 271 269 265 259 258 261 263 266 263
232 214 259 205 147 155 128 190 342 55 50 113 357 155 163 134 146 126 120 109 99 90 75 79 94 103 104 349 329 324 307 301 290 281 282 281 279 276 275 276 272 267 264 263 261 260 261 263 265
266 258 251 93 157 124 151 117 6 324 111 60 37 52 105 134 142 134 125 117 108 57 41 27 1 351 337 349 321 326 324 316 314 301 291 296 297 293 284 278 278 273 266 265 263 263 262 260 259
225 262 28 7 356 127 165 137 132 157 121 104 94 89 120 139 150 147 167 150 120 84 22 348 349 339 342 2 309 304 310 289 292 295 296 293 290 288 279 272 268 268 265 265 266 266 263 260 257
32 39 76 28 2 110 123 75 58 138 188 163 157 150 153 160 150 155 158 151 148 198 157 331 344 348 342 323 329 342 318 322 307 285 291 298 284 293 296 285 282 273 268 269 271 269 263 259 258
107 31 53 44 350 26 105 108 195 347 75 65 86 142 156 159 165 182 179 172 164 176 235 311 313 329 331 320 331 316 309 309 308 314 292 289 296 287 283 288 289 291 275 273 272 267 264 264 266
93 99 76 79 54 40 359 56 30 273 109 83 76 79 167 181 192 161 182 170 191 191 249 277 321 327 325 320 317 302 302 300 300 296 295 296 291 291 288 281 279 280 287 280 275 272 272 269 266
109 110 107 84 85 55 352 113 23 219 132 163 156 190 219 199 205 206 176 210 190 190 206 280 318 321 318 318 314 311 302 296 296 297 294 291 291 291 291 289 286 282 279 278 283 280 277 269 275
136 109 120 56 28 63 333 252 226 218 136 213 198 218 215 209 220 221 202 207 207 175 219 304 322 315 319 319 310 307 308 302 303 303 301 298 295 295 296 291 289 283 282 280 277 280 283 273 274
137 154 119 59 340 117 338 280 188 135 160 229 229 219 208 223 216 216 228 205 218 222 250 242 305 308 321 311 309 311 308 305 304 310 309 307 304 302 301 299 294 289 284 284 284 281 283 280 274
251 150 114 135 40 66 192 285 93 138 219 247 249 223 211 214 215 211 204 200 212 224 231 278 297 311 313 307 308 313 316 313 309 300 309 315 307 306 307 302 296 291 288 288 290 288 286 286 283
187 142 152 145 48 260 248 263 262 206 211 239 245 249 217 206 207 203 199 198 206 213 218 273 292 314 307 322 323 305 299 312 316 317 315 315 321 314 310 308 307 300 296 294 293 291 288 287 285
244 126 153 86 70 310 236 257 255 266 215 223 234 250 251 226 207 198 169 173 187 212 238 247 302 310 332 337 330 319 327 325 331 321 321 311 304 310 314 309 308 307 298 293 292 292 294 295 294
18 119 64 89 102 282 332 292 265 251 242 226 229 233 232 233 154 135 143 166 186 208 209 229 270 317 338 323 309 322 324 325 317 316 311 320 310 299 320 312 312 307 305 301 298 298 298 297 297
40 22 39 26 284 187 294 288 277 249 231 233 232 228 343 350 135 136 147 171 190 203 208 223 259 301 294 297 313 317 327 322 323 316 314 313 320 310 316 326 313 309 305 304 299 295 292 295 298
116 356 6 0 29 235 35 277 307 278 270 224 232 224 210 163 34 126 156 188 195 202 208 234 241 253 258 286 283 312 315 310 317 314 314 308 310 312 304 316 321 313 314 308 308 308 305 305 297
100 338 7 329 312 53 180 73 272 297 282 335 292 192 158 151 160 155 179 194 200 203 217 227 234 248 259 282 278 289 292 304 315 313 311 315 309 310 312 317 322 318 317 323 313 310 309 313 312
152 239 209 226 332 23 335 120 285 286 27 33 67 54 132 147 169 179 189 200 199 207 223 229 238 246 249 260 269 277 286 299 306 308 311 312 317 318 316 309 312 317 321 317 330 319 318 326 319
256 270 340 352 9 224 102 59 244 296 7 325 42 113 122 161 171 187 188 195 210 215 225 235 238 243 245 248 258 266 275 281 292 295 299 305 312 311 317 318 314 311 313 309 312 321 323 321 319
42 353 136 203 332 280 107 244 258 13 265 255 309 133 130 192 211 212 209 212 217 223 227 234 239 244 244 245 250 256 263 263 269 290 303 302 309 316 312 316 317 312 309 306 305 311 314 313 311
62 85 37 75 88 46 238 281 310 355 25 342 226 239 255 248 216 216 227 232 236 235 239 243 246 249 247 245 247 248 253 255 267 273 288 294 298 306 309 308 304 309 304 309 311 313 313 316 315
345 193 90 2 33 285 287 247 233 317 329 356 85 228 236 227 219 237 234 240 244 246 251 250 251 253 253 247 246 249 251 254 261 268 274 280 289 300 308 301 294 303 318 322 321 318 320 322 318
144 224 223 49 163 204 304 269 197 212 262 357 353 19 359 346 309 283 267 262 255 251 249 249 252 253 251 246 245 247 250 253 257 259 265 270 281 290 297 300 294 296 305 304 304 300 298 304 319
337 255 187 146 225 238 113 273 237 83 33 333 279 278 265 264 267 264 264 261 252 245 249 253 253 252 252 251 248 248 251 249 252 256 260 262 271 273 284 279 273 283 289 284 300 314 325 330 323